Location: Fayetteville
(35.0530°N, 78.8790°W)
Time: 18:21:50
(UTC-05:00)

ISS - Visible Passes

Search period start: 17 December 2017 00:00
Search period end: 27 December 2017 00:00
Orbit: 402 x 406 km, 51.6° (Epoch: 18 December)

Date Brightness Start Highest point End Pass type
(mag) Time Alt. Az. Time Alt. Az. Time Alt. Az.
17 Dec -2.8 18:00:56 10° WNW 18:04:08 49° SW 18:07:18 10° SSE visible
19 Dec -0.6 17:53:35 10° W 17:55:52 18° SW 17:58:09 10° S visible
25 Dec -0.7 06:09:49 10° S 06:12:06 18° SE 06:14:25 10° E visible
